{"data":{"norad_id":39616,"epoch":"2026-09-20T04:13:35.515200Z","epoch_age_seconds":49868,"freshness":"FRESH","line1":"1 39616U 14011A   26263.17610550 -.00000257  00000+0  00000+0 0  9999","line2":"2 39616   0.0509 165.1362 0006145  20.9555 162.3990  1.00271591 45664","mean_motion":1.00271591,"eccentricity":0.0006145,"inclination_deg":0.0509,"raan_deg":165.1362,"arg_perigee_deg":20.9555,"mean_anomaly_deg":162.399,"bstar":0,"rev_number":4566,"period_min":1436.0996825113,"perigee_km":35760.739085311,"apogee_km":35812.559607731,"semimajor_km":42164.786346521,"source":"CELESTRAK","updated_at":"2026-09-20T09:00:35.210052Z"}}